Time,TemperatureF,DewpointF,PressureIn,WindDirection,WindDirectionDegrees,WindSpeedMPH,WindSpeedGustMPH,Humidity,HourlyPrecipIn,Conditions,Clouds,dailyrainin,SoftwareType,DateUTC
2013-07-04 00:12:00,66.0,61.0,-100.00,South,190,1.0,1.0,85,-99.99,,,-99.99,,2013-07-04 05:12:00,
2013-07-04 00:22:00,66.0,61.0,-100.00,South,190,1.0,1.0,85,-99.99,,,-99.99,,2013-07-04 05:22:00,
2013-07-04 00:43:00,64.0,61.0,-100.00,South,190,0.0,0.0,90,-99.99,,,-99.99,,2013-07-04 05:43:00,
2013-07-04 00:52:00,64.0,61.0,-100.00,South,190,0.0,0.0,90,-99.99,,,-99.99,,2013-07-04 05:52:00,
2013-07-04 01:11:00,64.0,61.0,-100.00,SE,145,0.0,0.0,91,-99.99,,,-99.99,,2013-07-04 06:11:00,
2013-07-04 01:22:00,64.0,61.0,-100.00,SE,145,0.0,0.0,91,-99.99,,,-99.99,,2013-07-04 06:22:00,
2013-07-04 01:43:00,63.0,62.0,-100.00,NNE,30,1.0,1.0,94,-99.99,,,-99.99,,2013-07-04 06:43:00,
2013-07-04 01:53:00,63.0,62.0,-100.00,NNE,30,1.0,1.0,94,-99.99,,,-99.99,,2013-07-04 06:53:00,
2013-07-04 02:12:00,62.0,61.0,-100.00,South,180,0.0,0.0,95,-99.99,,,-99.99,,2013-07-04 07:12:00,
2013-07-04 02:22:00,62.0,61.0,-100.00,South,180,0.0,0.0,95,-99.99,,,-99.99,,2013-07-04 07:22:00,
2013-07-04 02:52:00,62.0,61.0,-100.00,South,170,0.0,0.0,96,-99.99,,,-99.99,,2013-07-04 07:52:00,
2013-07-04 03:22:00,62.0,61.0,-100.00,West,270,0.0,1.0,96,-99.99,,,-99.99,,2013-07-04 08:22:00,
2013-07-04 03:42:00,61.0,60.0,-100.00,NE,50,0.0,0.0,96,-99.99,,,-99.99,,2013-07-04 08:42:00,
2013-07-04 03:53:00,61.0,60.0,-100.00,NE,50,0.0,0.0,96,-99.99,,,-99.99,,2013-07-04 08:53:00,
2013-07-04 04:11:00,61.0,60.0,-100.00,ESE,120,0.0,0.0,96,-99.99,,,-99.99,,2013-07-04 09:11:00,
2013-07-04 04:22:00,61.0,60.0,-100.00,ESE,120,0.0,0.0,96,-99.99,,,-99.99,,2013-07-04 09:22:00,
2013-07-04 04:32:00,61.0,60.0,-100.00,ESE,120,0.0,0.0,96,-99.99,,,-99.99,,2013-07-04 09:32:00,
2013-07-04 04:52:00,61.0,60.0,-100.00,SSE,160,0.0,0.0,96,-99.99,,,-99.99,,2013-07-04 09:52:00,
2013-07-04 05:11:00,61.0,60.0,-100.00,South,180,0.0,0.0,96,-99.99,,,-99.99,,2013-07-04 10:11:00,
2013-07-04 05:22:00,61.0,60.0,-100.00,South,180,0.0,0.0,96,-99.99,,,-99.99,,2013-07-04 10:22:00,
2013-07-04 05:43:00,60.0,59.0,-100.00,South,185,0.0,0.0,96,-99.99,,,-99.99,,2013-07-04 10:43:00,
2013-07-04 05:53:00,60.0,59.0,-100.00,South,185,0.0,0.0,96,-99.99,,,-99.99,,2013-07-04 10:53:00,
2013-07-04 06:11:00,60.0,59.0,-100.00,NNW,340,0.0,0.0,96,-99.99,,,-99.99,,2013-07-04 11:11:00,
2013-07-04 06:22:00,60.0,59.0,-100.00,NNW,340,0.0,0.0,96,-99.99,,,-99.99,,2013-07-04 11:22:00,
2013-07-04 06:43:00,60.0,59.0,-100.00,NW,325,0.0,0.0,96,-99.99,,,-99.99,,2013-07-04 11:43:00,
2013-07-04 06:53:00,60.0,59.0,-100.00,NW,325,0.0,0.0,96,-99.99,,,-99.99,,2013-07-04 11:53:00,
2013-07-04 07:12:00,62.0,61.0,-100.00,NE,50,0.0,0.0,96,-99.99,,,-99.99,,2013-07-04 12:12:00,
2013-07-04 07:22:00,62.0,61.0,-100.00,NE,50,0.0,0.0,96,-99.99,,,-99.99,,2013-07-04 12:22:00,
2013-07-04 07:33:00,62.0,61.0,-100.00,NE,50,0.0,0.0,96,-99.99,,,-99.99,,2013-07-04 12:33:00,
2013-07-04 07:52:00,64.0,63.0,-100.00,ENE,65,0.0,0.0,96,-99.99,,,-99.99,,2013-07-04 12:52:00,
2013-07-04 08:23:00,67.0,66.0,-100.00,East,85,0.0,1.0,96,-99.99,,,-99.99,,2013-07-04 13:23:00,
2013-07-04 08:43:00,71.0,66.0,-100.00,East,85,0.0,1.0,84,-99.99,,,-99.99,,2013-07-04 13:43:00,
2013-07-04 08:53:00,71.0,66.0,-100.00,East,85,0.0,1.0,84,-99.99,,,-99.99,,2013-07-04 13:53:00,
2013-07-04 09:22:00,74.0,59.0,-100.00,SE,130,2.0,3.0,60,-99.99,,,-99.99,,2013-07-04 14:22:00,
2013-07-04 09:43:00,76.0,58.0,-100.00,ESE,105,6.0,6.0,53,-99.99,,,-99.99,,2013-07-04 14:43:00,
2013-07-04 09:53:00,76.0,58.0,-100.00,ESE,105,6.0,6.0,53,-99.99,,,-99.99,,2013-07-04 14:53:00,
2013-07-04 10:11:00,78.0,58.0,-100.00,ESE,120,3.0,4.0,51,-99.99,,,-99.99,,2013-07-04 15:11:00,
2013-07-04 10:23:00,78.0,58.0,-100.00,ESE,120,3.0,4.0,51,-99.99,,,-99.99,,2013-07-04 15:23:00,
2013-07-04 10:53:00,79.0,58.0,-100.00,ESE,110,4.0,6.0,49,-99.99,,,-99.99,,2013-07-04 15:53:00,
2013-07-04 11:22:00,79.0,57.0,-100.00,East,90,4.0,6.0,47,-99.99,,,-99.99,,2013-07-04 16:22:00,
2013-07-04 11:52:00,82.0,58.0,-100.00,ENE,75,6.0,9.0,44,-99.99,,,-99.99,,2013-07-04 16:52:00,
2013-07-04 12:12:00,81.0,57.0,-100.00,East,85,4.0,6.0,43,-99.99,,,-99.99,,2013-07-04 17:12:00,
2013-07-04 12:22:00,81.0,57.0,-100.00,East,85,4.0,6.0,43,-99.99,,,-99.99,,2013-07-04 17:22:00,
2013-07-04 12:43:00,83.0,58.0,-100.00,East,90,6.0,9.0,43,-99.99,,,-99.99,,2013-07-04 17:43:00,
2013-07-04 12:53:00,83.0,58.0,-100.00,East,90,6.0,9.0,43,-99.99,,,-99.99,,2013-07-04 17:53:00,
2013-07-04 13:11:00,83.0,57.0,-100.00,ENE,65,2.0,3.0,41,-99.99,,,-99.99,,2013-07-04 18:11:00,
2013-07-04 13:22:00,83.0,57.0,-100.00,ENE,65,2.0,3.0,41,-99.99,,,-99.99,,2013-07-04 18:22:00,
2013-07-04 13:43:00,83.0,56.0,-100.00,ESE,105,9.0,10.0,40,-99.99,,,-99.99,,2013-07-04 18:43:00,
2013-07-04 13:52:00,83.0,56.0,-100.00,ESE,105,9.0,10.0,40,-99.99,,,-99.99,,2013-07-04 18:52:00,
2013-07-04 14:12:00,84.0,55.0,-100.00,East,90,6.0,6.0,37,-99.99,,,-99.99,,2013-07-04 19:12:00,
2013-07-04 14:22:00,84.0,55.0,-100.00,East,90,6.0,6.0,37,-99.99,,,-99.99,,2013-07-04 19:22:00,
2013-07-04 14:33:00,84.0,55.0,-100.00,East,90,6.0,6.0,37,-99.99,,,-99.99,,2013-07-04 19:33:00,
2013-07-04 14:43:00,84.0,57.0,-100.00,NNE,30,2.0,6.0,39,-99.99,,,-99.99,,2013-07-04 19:43:00,
2013-07-04 14:53:00,84.0,57.0,-100.00,NNE,30,2.0,6.0,39,-99.99,,,-99.99,,2013-07-04 19:53:00,
2013-07-04 15:22:00,83.0,55.0,-100.00,ENE,70,9.0,12.0,38,-99.99,,,-99.99,,2013-07-04 20:22:00,
2013-07-04 15:42:00,83.0,55.0,-100.00,North,0,2.0,3.0,38,-99.99,,,-99.99,,2013-07-04 20:42:00,
2013-07-04 15:53:00,83.0,55.0,-100.00,North,0,2.0,3.0,38,-99.99,,,-99.99,,2013-07-04 20:53:00,
2013-07-04 16:11:00,85.0,56.0,-100.00,NNE,15,2.0,3.0,37,-99.99,,,-99.99,,2013-07-04 21:11:00,
2013-07-04 16:22:00,85.0,56.0,-100.00,NNE,15,2.0,3.0,37,-99.99,,,-99.99,,2013-07-04 21:22:00,
2013-07-04 16:53:00,84.0,55.0,-100.00,East,80,6.0,6.0,37,-99.99,,,-99.99,,2013-07-04 21:53:00,
2013-07-04 17:12:00,83.0,56.0,-100.00,East,100,9.0,10.0,39,-99.99,,,-99.99,,2013-07-04 22:12:00,
2013-07-04 17:22:00,83.0,56.0,-100.00,East,100,9.0,10.0,39,-99.99,,,-99.99,,2013-07-04 22:22:00,
2013-07-04 17:43:00,84.0,56.0,-100.00,East,95,6.0,9.0,38,-99.99,,,-99.99,,2013-07-04 22:43:00,
2013-07-04 17:52:00,84.0,56.0,-100.00,East,95,6.0,9.0,38,-99.99,,,-99.99,,2013-07-04 22:52:00,
2013-07-04 18:12:00,84.0,57.0,-100.00,East,100,6.0,9.0,40,-99.99,,,-99.99,,2013-07-04 23:12:00,
2013-07-04 18:23:00,84.0,57.0,-100.00,East,100,6.0,9.0,40,-99.99,,,-99.99,,2013-07-04 23:23:00,
2013-07-04 18:33:00,83.0,57.0,-100.00,East,80,6.0,6.0,41,-99.99,,,-99.99,,2013-07-04 23:33:00,
2013-07-04 18:43:00,82.0,56.0,-100.00,East,85,4.0,6.0,40,-99.99,,,-99.99,,2013-07-04 23:43:00,
2013-07-04 18:52:00,82.0,56.0,-100.00,East,85,4.0,6.0,40,-99.99,,,-99.99,,2013-07-04 23:52:00,
2013-07-04 19:11:00,81.0,53.0,-100.00,SE,125,3.0,4.0,38,-99.99,,,-99.99,,2013-07-05 00:11:00,
2013-07-04 19:22:00,81.0,53.0,-100.00,SE,125,3.0,4.0,38,-99.99,,,-99.99,,2013-07-05 00:22:00,
2013-07-04 19:32:00,81.0,53.0,-100.00,SE,125,3.0,4.0,38,-99.99,,,-99.99,,2013-07-05 00:32:00,
2013-07-04 19:52:00,80.0,58.0,-100.00,East,80,8.0,9.0,47,-99.99,,,-99.99,,2013-07-05 00:52:00,
2013-07-04 20:11:00,77.0,61.0,-100.00,East,80,6.0,6.0,58,-99.99,,,-99.99,,2013-07-05 01:11:00,
2013-07-04 20:22:00,77.0,61.0,-100.00,East,80,6.0,6.0,58,-99.99,,,-99.99,,2013-07-05 01:22:00,
2013-07-04 20:42:00,75.0,64.0,-100.00,East,85,3.0,3.0,67,-99.99,,,-99.99,,2013-07-05 01:42:00,
2013-07-04 20:52:00,75.0,64.0,-100.00,East,85,3.0,3.0,67,-99.99,,,-99.99,,2013-07-05 01:52:00,
2013-07-04 21:22:00,74.0,65.0,-100.00,East,90,1.0,1.0,75,-99.99,,,-99.99,,2013-07-05 02:22:00,
2013-07-04 21:42:00,71.0,66.0,-100.00,ENE,70,0.0,0.0,82,-99.99,,,-99.99,,2013-07-05 02:42:00,
2013-07-04 21:52:00,71.0,66.0,-100.00,ENE,70,0.0,0.0,82,-99.99,,,-99.99,,2013-07-05 02:52:00,
2013-07-04 22:02:00,71.0,66.0,-100.00,East,100,0.0,1.0,86,-99.99,,,-99.99,,2013-07-05 03:02:00,
2013-07-04 22:11:00,70.0,67.0,-100.00,NE,45,1.0,1.0,89,-99.99,,,-99.99,,2013-07-05 03:11:00,
2013-07-04 22:22:00,70.0,67.0,-100.00,NE,45,1.0,1.0,89,-99.99,,,-99.99,,2013-07-05 03:22:00,
2013-07-04 22:32:00,70.0,66.0,-100.00,ESE,105,0.0,1.0,90,-99.99,,,-99.99,,2013-07-05 03:32:00,
2013-07-04 22:42:00,69.0,66.0,-100.00,ENE,70,1.0,1.0,91,-99.99,,,-99.99,,2013-07-05 03:42:00,
2013-07-04 22:52:00,69.0,66.0,-100.00,ENE,70,1.0,1.0,91,-99.99,,,-99.99,,2013-07-05 03:52:00,
2013-07-04 23:11:00,69.0,66.0,-100.00,NNE,30,0.0,1.0,92,-99.99,,,-99.99,,2013-07-05 04:11:00,
2013-07-04 23:22:00,69.0,66.0,-100.00,NNE,30,0.0,1.0,92,-99.99,,,-99.99,,2013-07-05 04:22:00,
2013-07-04 23:43:00,68.0,66.0,-100.00,East,80,1.0,1.0,93,-99.99,,,-99.99,,2013-07-05 04:43:00,
2013-07-04 23:53:00,68.0,66.0,-100.00,East,80,1.0,1.0,93,-99.99,,,-99.99,,2013-07-05 04:53:00,